| time (UTC) | temp F | wind direction | speed MPH | gust MPH | rain 1hr in | rain 24hr in | rain mn in | humidity % | barometer mb |
| 20260505194532 | 85 | 211 | 9.0 | 19.0 | 0.00 | 0.00 | 0.00 | 67 | 1004.7 |
| 20260505193034 | 85 | 192 | 10.0 | 17.0 | 0.00 | 0.00 | 0.00 | 66 | 1004.8 |
| 20260505191535 | 84 | 197 | 9.0 | 17.0 | 0.00 | 0.00 | 0.00 | 68 | 1005.0 |
| 20260505190032 | 83 | 185 | 10.0 | 18.0 | 0.00 | 0.00 | 0.00 | 69 | 1005.2 |
| 20260505184532 | 82 | 175 | 9.0 | 21.0 | 0.00 | 0.00 | 0.00 | 70 | 1005.2 |
| 20260505183037 | 82 | 209 | 10.0 | 22.0 | 0.00 | 0.00 | 0.00 | 70 | 1005.3 |
| 20260505181530 | 82 | 178 | 10.0 | 20.0 | 0.00 | 0.00 | 0.00 | 71 | 1005.4 |
| 20260505180032 | 81 | 180 | 9.0 | 20.0 | 0.00 | 0.00 | 0.00 | 72 | 1005.6 |
| 20260505174531 | 80 | 200 | 10.0 | 18.0 | 0.00 | 0.00 | 0.00 | 73 | 1005.6 |
| 20260505173032 | 81 | 183 | 11.0 | 20.0 | 0.00 | 0.00 | 0.00 | 74 | 1005.4 |
| 20260505171532 | 79 | 207 | 11.0 | 26.0 | 0.00 | 0.00 | 0.00 | 75 | 1005.3 |
| 20260505170033 | 79 | 191 | 11.0 | 19.0 | 0.00 | 0.00 | 0.00 | 75 | 1005.4 |
| 20260505164531 | 78 | 214 | 10.0 | 24.0 | 0.00 | 0.00 | 0.00 | 76 | 1005.2 |
| 20260505163032 | 78 | 166 | 11.0 | 23.0 | 0.00 | 0.00 | 0.00 | 76 | 1005.3 |
| 20260505161540 | 77 | 187 | 10.0 | 20.0 | 0.00 | 0.00 | 0.00 | 78 | 1005.5 |
| 20260505153032 | 76 | 233 | 9.0 | 20.0 | 0.00 | 0.00 | 0.00 | 79 | 1005.5 |
| 20260505151531 | 75 | 193 | 12.0 | 23.0 | 0.00 | 0.00 | 0.00 | 80 | 1005.4 |
| 20260505124529 | 70 | 169 | 8.0 | 21.0 | 0.00 | 0.00 | 0.00 | 88 | 1004.4 |
| 20260505123033 | 70 | 228 | 11.0 | 20.0 | 0.00 | 0.00 | 0.00 | 88 | 1004.3 |
| 20260505121537 | 70 | 214 | 11.0 | 25.0 | 0.00 | 0.00 | 0.00 | 88 | 1004.0 |
| 20260505120031 | 70 | 175 | 9.0 | 22.0 | 0.00 | 0.00 | 0.00 | 88 | 1004.1 |
| 20260505114530 | 70 | 191 | 10.0 | 19.0 | 0.00 | 0.00 | 0.00 | 88 | 1004.0 |
| 20260505113030 | 70 | 188 | 11.0 | 28.0 | 0.00 | 0.00 | 0.00 | 88 | 1004.1 |
| 20260505111530 | 70 | 183 | 10.0 | 19.0 | 0.00 | 0.00 | 0.00 | 88 | 1003.9 |
| 20260505101537 | 70 | 171 | 9.0 | 18.0 | 0.00 | 0.00 | 0.00 | 87 | 1004.1 |
| 20260505100035 | 70 | 185 | 9.0 | 22.0 | 0.00 | 0.00 | 0.00 | 87 | 1003.9 |
| 20260505094528 | 70 | 189 | 10.0 | 21.0 | 0.00 | 0.00 | 0.00 | 87 | 1004.2 |
| 20260505093033 | 70 | 173 | 8.0 | 22.0 | 0.00 | 0.00 | 0.00 | 87 | 1004.4 |
| 20260505091534 | 70 | 180 | 11.0 | 21.0 | 0.00 | 0.00 | 0.00 | 87 | 1004.5 |
| 20260505090040 | 70 | 195 | 8.0 | 17.0 | 0.00 | 0.00 | 0.00 | 87 | 1004.5 |
| 20260505084539 | 70 | 174 | 10.0 | 22.0 | 0.00 | 0.00 | 0.00 | 87 | 1004.5 |
| 20260505083029 | 70 | 179 | 10.0 | 18.0 | 0.00 | 0.00 | 0.00 | 87 | 1004.4 |
| 20260505081531 | 69 | 200 | 12.0 | 23.0 | 0.00 | 0.00 | 0.00 | 88 | 1004.6 |
| 20260505080041 | 69 | 199 | 10.0 | 24.0 | 0.00 | 0.00 | 0.00 | 87 | 1004.7 |
| 20260505074529 | 69 | 167 | 10.0 | 24.0 | 0.00 | 0.00 | 0.00 | 87 | 1004.9 |
| 20260505073035 | 70 | 195 | 12.0 | 22.0 | 0.00 | 0.00 | 0.00 | 86 | 1005.1 |
| 20260505071542 | 70 | 179 | 10.0 | 24.0 | 0.00 | 0.00 | 0.00 | 86 | 1005.3 |
| 20260505070030 | 70 | 197 | 11.0 | 22.0 | 0.00 | 0.00 | 0.00 | 85 | 1005.5 |
| 20260505064534 | 70 | 170 | 10.0 | 21.0 | 0.00 | 0.00 | 0.00 | 84 | 1005.8 |
| 20260505063030 | 71 | 214 | 10.0 | 21.0 | 0.00 | 0.00 | 0.00 | 83 | 1005.9 |
| 20260505061537 | 71 | 204 | 9.0 | 20.0 | 0.00 | 0.00 | 0.00 | 83 | 1005.9 |
| 20260505060036 | 71 | 208 | 10.0 | 22.0 | 0.00 | 0.00 | 0.00 | 82 | 1005.8 |
| 20260505054536 | 71 | 168 | 11.0 | 26.0 | 0.00 | 0.00 | 0.00 | 81 | 1005.8 |
| 20260505053035 | 72 | 189 | 10.0 | 23.0 | 0.00 | 0.00 | 0.00 | 81 | 1006.1 |
| 20260505051532 | 72 | 200 | 11.0 | 20.0 | 0.00 | 0.00 | 0.00 | 80 | 1006.3 |
| 20260505041530 | 72 | 195 | 6.0 | 16.0 | 0.00 | 0.00 | 0.00 | 79 | 1006.5 |
| 20260505040032 | 72 | 199 | 8.0 | 16.0 | 0.00 | 0.00 | 0.00 | 78 | 1006.4 |
| 20260505034529 | 72 | 160 | 8.0 | 16.0 | 0.00 | 0.00 | 0.00 | 78 | 1006.2 |
| 20260505033038 | 72 | 175 | 9.0 | 19.0 | 0.00 | 0.00 | 0.00 | 78 | 1006.3 |
| 20260505031543 | 72 | 172 | 10.0 | 16.0 | 0.00 | 0.00 | 0.00 | 77 | 1006.3 |
| 20260505030032 | 72 | 173 | 7.0 | 15.0 | 0.00 | 0.00 | 0.00 | 77 | 1006.5 |
| 20260505024545 | 72 | 179 | 7.0 | 14.0 | 0.00 | 0.00 | 0.00 | 76 | 1006.3 |
| 20260505023040 | 73 | 168 | 6.0 | 13.0 | 0.00 | 0.00 | 0.00 | 75 | 1006.1 |
| 20260505021533 | 73 | 175 | 7.0 | 11.0 | 0.00 | 0.00 | 0.00 | 75 | 1006.2 |
| 20260505020032 | 73 | 200 | 8.0 | 13.0 | 0.00 | 0.00 | 0.00 | 74 | 1006.1 |
| 20260505014539 | 74 | 177 | 7.0 | 13.0 | 0.00 | 0.00 | 0.00 | 73 | 1006.2 |
| 20260505013029 | 74 | 201 | 8.0 | 14.0 | 0.00 | 0.00 | 0.00 | 71 | 1006.1 |
| 20260505011529 | 75 | 170 | 10.0 | 15.0 | 0.00 | 0.00 | 0.00 | 71 | 1006.1 |
| 20260505010031 | 75 | 173 | 8.0 | 17.0 | 0.00 | 0.00 | 0.00 | 70 | 1006.2 |
| 20260505004530 | 75 | 152 | 11.0 | 19.0 | 0.00 | 0.00 | 0.00 | 69 | 1006.1 |
| 20260505003032 | 76 | 191 | 12.0 | 20.0 | 0.00 | 0.00 | 0.00 | 67 | 1006.4 |
| 20260505001534 | 76 | 168 | 7.0 | 25.0 | 0.00 | 0.00 | 0.00 | 67 | 1006.6 |
| 20260505000029 | 77 | 195 | 12.0 | 27.0 | 0.00 | 0.00 | 0.00 | 66 | 1006.7 |
| 20260504234533 | 77 | 170 | 12.0 | 21.0 | 0.00 | 0.00 | 0.00 | 65 | 1006.5 |
| 20260504233032 | 77 | 168 | 12.0 | 24.0 | 0.00 | 0.00 | 0.00 | 65 | 1006.8 |
| 20260504231531 | 78 | 165 | 11.0 | 24.0 | 0.00 | 0.00 | 0.00 | 64 | 1006.8 |
| 20260504230030 | 78 | 199 | 12.0 | 22.0 | 0.00 | 0.00 | 0.00 | 62 | 1007.0 |
| 20260504224536 | 79 | 204 | 15.0 | 26.0 | 0.00 | 0.00 | 0.00 | 61 | 1007.1 |
| 20260504223028 | 78 | 193 | 13.0 | 24.0 | 0.00 | 0.00 | 0.00 | 63 | 1007.2 |
| 20260504221532 | 78 | 174 | 9.0 | 27.0 | 0.00 | 0.00 | 0.00 | 62 | 1007.2 |
| 20260504220033 | 79 | 158 | 13.0 | 26.0 | 0.00 | 0.00 | 0.00 | 61 | 1007.4 |
| 20260504214532 | 79 | 217 | 14.0 | 30.0 | 0.00 | 0.00 | 0.00 | 60 | 1007.6 |
| 20260504213031 | 80 | 168 | 10.0 | 24.0 | 0.00 | 0.00 | 0.00 | 60 | 1007.7 |
| 20260504211533 | 79 | 187 | 15.0 | 28.0 | 0.00 | 0.00 | 0.00 | 60 | 1007.9 |
| 20260504210044 | 80 | 178 | 15.0 | 28.0 | 0.00 | 0.00 | 0.00 | 59 | 1008.1 |
| 20260504204546 | 80 | 172 | 14.0 | 26.0 | 0.00 | 0.00 | 0.00 | 58 | 1008.2 |
| 20260504203031 | 80 | 160 | 10.0 | 26.0 | 0.00 | 0.00 | 0.00 | 60 | 1008.8 |
| 20260504201531 | 79 | 171 | 14.0 | 22.0 | 0.00 | 0.00 | 0.00 | 60 | 1009.1 |
| 20260504200029 | 79 | 162 | 10.0 | 26.0 | 0.00 | 0.00 | 0.00 | 61 | 1009.4 |